Погода в Калиново

Россия / Московская область     54°53′46″N   37°17′18″E
темп.,
°C
ветер,
м/с
пор.,
м/с
влажн.,
%
обл.,
%
осадки,
мм/ч
давл.,
гПа
погр.,
м
23 апреля, пт
пт2300:00+8ю412879 0.1 1015318
03:00+6ю311935 0.1 1015273
06:00+6ю4129099 0.1 1015371
09:00+11ю51274100 0.6 1015664
12:00+15ю6115377 0.3 10132171
15:00+14ююз61156100 0.7 10121780
18:00+6зюз3892100 2.6 1013421
21:00+5зсз1294100 5.6 101395
24 апреля, сб
сб2400:00+5сз0094100 2.1 101179
03:00+5зсз2395100 3.1 1010610
06:00+3сз3697100 2.4 1008520
09:00+4зсз2496100 3.4 1008616
12:00+4з3697100 1.0 1008494
15:00+8з246676 1.8 10061143
18:00+7з3573100 1.8 1006685
21:00+5зсз4879100 2.9 1007617
25 апреля, вс
вс2500:00+3зсз5137822 0.1 1008606
03:00+1з4128697 0.1 1009471
06:000зюз4119117 0.0 1010561
09:00+4з597273 0.0 10101196
12:00+6зюз5854100 0.4 10101859
15:00+7юз695392 1.2 10102110
18:00+6зюз485843 0.3 10091704
21:00+2зюз287882 0.4 1011213
26 апреля, пн
пн2600:000юз39865 0.0 1012225
03:00−1юз39885 0.0 1012258
06:000юз39855 0.0 1012353
09:00+5зюз476477 0.0 10121175
12:00+6зюз4654100 0.3 10121506
15:00+7зюз565197 1.2 10111863
18:00+7з25511 0.1 10101370
21:00+2зюз227228 0.1 101017
27 апреля, вт
вт2700:000з118011 0.1 101010
03:000зюз118199 0.1 100912
06:00+1зюз2482100 0.1 1008167
09:00+3ю118188 1.3 1008360
12:00+6зюз245495 0.7 10071489
15:00+8зюз454489 1.2 10072071
18:00+6з575893 0.5 1007810
21:00+2зюз310845 0.8 1008255